Flagstaff, Arizona, United States (86001)
Lat: 35.20N, Lon: 111.65W
Wx Zone: AZZ015
Local Info
Past Weather Observations for Sunday, July 27, 2014

NOTE: This archive is for the closest National Weather Service station to Flagstaff. Information may differ from the station used for current weather conditions.

Click here for Long-term Archive

Time Weather Temperature Dewpoint Humidity Pressure Winds Precip Visibility
23:57
Mostly Cloudy
63°F / 17°C 50°F / 10°C 64% 30.45 in
(1031 mb)
Variable 3.5 mph
(Variable 6 kph)
0.00 in
(0.00 mm)
10SM
22:57
Overcast
63°F / 17°C 50°F / 10°C 64% 30.45 in
(1031 mb)
NW 4.6 mph
(NW 7 kph)
- 10SM
21:57
Overcast
64°F / 18°C 48°F / 9°C 56% 30.42 in
(1030 mb)
Variable 3.5 mph
(Variable 6 kph)
0.00 in
(0.00 mm)
10SM
20:57
Overcast
Light Rain
63°F / 17°C 48°F / 9°C 59% 30.42 in
(1030 mb)
NNW 9.2 mph
(NNW 15 kph)
0.00 in
(0.00 mm)
10SM
19:57
Overcast
66°F / 19°C 46°F / 8°C 49% 30.39 in
(1029 mb)
E 10.4 mph
(E 17 kph)
- 10SM
18:57
Overcast
66°F / 19°C 52°F / 11°C 60% 30.36 in
(1028 mb)
Variable 5.8 mph
(Variable 9 kph)
0.01 in
(0.25 mm)
10SM
17:57
Overcast
Light Rain
70°F / 21°C 52°F / 11°C 53% 30.36 in
(1028 mb)
W 10.4 mph
(W 17 kph)
0.00 in
(0.00 mm)
10SM
16:57
Partly Cloudy
75°F / 24°C 48°F / 9°C 39% 30.33 in
(1027 mb)
NNW 4.6 mph
(NNW 7 kph)
0.05 in
(1.27 mm)
10SM
15:57
Partly Cloudy
81°F / 27°C 43°F / 6°C 26% 30.3 in
(1026 mb)
Calm - 10SM
14:57
Clear
82°F / 28°C 43°F / 6°C 25% 30.33 in
(1027 mb)
NE 9.2 mph
(NE 15 kph)
- 10SM
13:57
Clear
81°F / 27°C 43°F / 6°C 26% 30.36 in
(1028 mb)
Calm - 10SM
12:57
Partly Cloudy
75°F / 24°C 52°F / 11°C 44% 30.39 in
(1029 mb)
Calm 0.00 in
(0.00 mm)
10SM
11:57
Mostly Cloudy
70°F / 21°C 54°F / 12°C 57% 30.45 in
(1031 mb)
SSE 5.8 mph
(SSE 9 kph)
- 10SM
10:57
Clear
72°F / 22°C 54°F / 12°C 53% 30.45 in
(1031 mb)
SSE 8.1 mph
(SSE 13 kph)
- 10SM
09:57
Clear
70°F / 21°C 54°F / 12°C 57% 30.45 in
(1031 mb)
S 13.8 mph
(S 22 kph)
- 10SM
08:57
Clear
70°F / 21°C 52°F / 11°C 53% 30.45 in
(1031 mb)
SW 15 mph
(SW 24 kph)
- 10SM
07:57
Clear
68°F / 20°C 50°F / 10°C 53% 30.42 in
(1030 mb)
SSE 6.9 mph
(SSE 11 kph)
- 10SM
06:57
Clear
61°F / 16°C 54°F / 12°C 77% 30.39 in
(1029 mb)
Calm - 10SM
05:57
Clear
55°F / 13°C 52°F / 11°C 88% 30.39 in
(1029 mb)
Calm - 10SM
04:57
Clear
55°F / 13°C 54°F / 12°C 94% 30.36 in
(1028 mb)
Variable 4.6 mph
(Variable 7 kph)
- 10SM
03:57
Clear
57°F / 14°C 52°F / 11°C 82% 30.36 in
(1028 mb)
SW 3.5 mph
(SW 6 kph)
- 10SM
02:57
Overcast
61°F / 16°C 54°F / 12°C 77% 30.39 in
(1029 mb)
NE 6.9 mph
(NE 11 kph)
0.00 in
(0.00 mm)
10SM
01:57
Mostly Cloudy
61°F / 16°C 55°F / 13°C 83% 30.42 in
(1030 mb)
Calm 0.01 in
(0.25 mm)
10SM
00:57
Overcast
Light Rain
63°F / 17°C 54°F / 12°C 73% 30.42 in
(1030 mb)
SE 5.8 mph
(SE 9 kph)
0.00 in
(0.00 mm)
10SM
Time Weather Temperature Dewpoint Humidity Pressure Winds Precip Visibility


Weather for websites

WeatherForYou.com, LLC is not responsible for any damages or problems caused by this service. Current weather conditions are obtained from the closest station including government and personal stations which may have varying degrees of accuracy. Weather forecasts are derived from the NOAA NDFD. Like all things, this site belongs to Jesus Christ... He just trusts me to maintain it. If you have any questions or comments email webmaster@weatherforyou.com

Copyright © 2014, WeatherForYou.com LLC. All rights reserved.